Kaisei Maru — JD3114 — position and weather

sailwx.info

Track history (hours):
 
Tides and Currents Weather Stations Pressure Air Temp Water Temp Dewpoint Dewpoint Depression Visibility Wind Speed Wind Dir Waves Ship Positions

Kaisei Maru

Last reported at 2014-Oct-30 08:19 UTC. Time now 2014-Nov-01 05:30 UTC.
Position N 34°37' E 134°57'.

Length 52 m; draft 3 m.

Type: Tanker. MMSI: 431001837.

Date/timePositionNaut miles runAvg speedWind from/ knotsBaromVisibWave heightAir tempDewpointWater temp
2014-Oct-30 08:19N 34°37' E 134°57'7 9.4
2014-Oct-30 07:33N 34°36' E 135°06'1111.1
2014-Oct-30 06:33N 34°39' E 135°19'5 4.9
2014-Oct-30 05:33N 34°42' E 135°24'0 0.0
2014-Oct-29 23:12N 34°42' E 135°23'0 0.7
2014-Oct-29 22:33N 34°42' E 135°24'8 8.2
2014-Oct-29 21:33N 34°41' E 135°14'1 1.1
2014-Oct-29 20:19N 34°41' E 135°12'0 0.0
2014-Oct-29 19:31N 34°41' E 135°12'0 0.0
2014-Oct-29 18:31N 34°41' E 135°12'0 0.0
2014-Oct-29 17:31N 34°41' E 135°12'0 0.0
2014-Oct-29 16:25N 34°41' E 135°12'0 0.0
2014-Oct-29 15:31N 34°41' E 135°12'0 0.0
2014-Oct-29 14:31N 34°41' E 135°12'0 0.0
2014-Oct-29 13:31N 34°41' E 135°12'0 0.0
2014-Oct-29 12:31N 34°41' E 135°12'0 0.0
2014-Oct-29 11:31N 34°41' E 135°12'0 0.0
2014-Oct-29 10:31N 34°41' E 135°12'0 0.0
2014-Oct-29 09:31N 34°41' E 135°12'0 0.0
2014-Oct-29 08:31N 34°41' E 135°12'0 0.0
2014-Oct-29 07:25N 34°41' E 135°12'0 0.0
2014-Oct-29 06:31N 34°41' E 135°12'1 0.6
2014-Oct-29 05:33N 34°41' E 135°13'10 9.7
2014-Oct-29 04:33N 34°32' E 135°18'6 3.1
2014-Oct-29 02:31N 34°26' E 135°19'0 0.0
2014-Oct-29 01:32N 34°26' E 135°19'0 0.0
2014-Oct-28 23:32N 34°26' E 135°19'6 5.6
2014-Oct-28 22:33N 34°31' E 135°18'1010.5
2014-Oct-28 21:33N 34°41' E 135°13'1 1.0
2014-Oct-28 20:32N 34°41' E 135°12'0 0.0
2014-Oct-28 19:32N 34°41' E 135°12'0 0.0
2014-Oct-28 18:32N 34°41' E 135°12'0 0.0
2014-Oct-28 17:32N 34°41' E 135°12'0 0.0
2014-Oct-28 16:32N 34°41' E 135°12'0 0.0
2014-Oct-28 15:32N 34°41' E 135°12'0 0.0
2014-Oct-28 14:32N 34°41' E 135°12'0 0.0
2014-Oct-28 13:32N 34°41' E 135°12'0 0.0
2014-Oct-28 12:32N 34°41' E 135°12'0 0.0
2014-Oct-28 11:32N 34°41' E 135°12'0 0.0
2014-Oct-28 10:20N 34°41' E 135°12'0 0.0
2014-Oct-28 09:32N 34°41' E 135°12'0 0.0
2014-Oct-28 08:32N 34°41' E 135°12'0 0.0
2014-Oct-28 07:32N 34°41' E 135°12'1 0.7
2014-Oct-28 06:34N 34°41' E 135°13'3 3.0
2014-Oct-28 05:30N 34°42' E 135°17'0 0.0
2014-Oct-28 04:33N 34°42' E 135°17'2 2.0
2014-Oct-28 03:33N 34°41' E 135°14'5 4.7
2014-Oct-28 02:33N 34°39' E 135°10'0 0.0
2014-Oct-28 01:33N 34°39' E 135°10'0 0.0
2014-Oct-28 00:33N 34°39' E 135°10'0 0.0
2014-Oct-27 23:33N 34°39' E 135°10'1 0.7
2014-Oct-27 22:29N 34°38' E 135°10'0 0.0
2014-Oct-27 21:23N 34°38' E 135°10'0 0.4
2014-Oct-27 20:34N 34°38' E 135°10'1110.5
2014-Oct-27 19:28N 34°36' E 134°56'  
2014-Oct-24 08:27N 32°04' E 131°34'9 9.9
2014-Oct-24 07:33N 32°12' E 131°38'10 9.8
2014-Oct-24 06:33N 32°20' E 131°44'1010.1
2014-Oct-24 05:33N 32°29' E 131°50'205 9.3
2014-Oct-23 07:33N 34°37' E 135°01'8 8.0
2014-Oct-23 06:33N 34°33' E 135°09'10 9.7
2014-Oct-23 05:30N 34°27' E 135°19'1 0.2
2014-Oct-23 01:33N 34°26' E 135°19'1110.3
2014-Oct-23 00:32N 34°32' E 135°09'9 9.4
2014-Oct-22 23:32N 34°37' E 134°59'121 3.9
2014-Oct-21 16:07N 33°57' E 132°41'11810.8
2014-Oct-21 05:11N 34°36' E 134°56'5 8.2
2014-Oct-21 04:33N 34°37' E 135°02'9 8.8
2014-Oct-21 03:33N 34°37' E 135°13'1010.4
2014-Oct-21 02:33N 34°39' E 135°25'2 0.7
2014-Oct-21 00:12N 34°40' E 135°27'4 5.8
2014-Oct-20 23:33N 34°38' E 135°23'1110.6
2014-Oct-20 22:33N 34°36' E 135°10'9 8.8
2014-Oct-20 21:33N 34°37' E 134°60'  
Track history (hours):
 
Tides and Currents Weather Stations Pressure Air Temp Water Temp Dewpoint Dewpoint Depression Visibility Wind Speed Wind Dir Waves Ship Positions

Kaisei Maru

Last reported at 2014-Oct-30 08:19 UTC. Time now 2014-Nov-01 05:30 UTC.
Position N 34°37' E 134°57'.

Length 52 m; draft 3 m.

Type: Tanker. MMSI: 431001837.

Date/timePositionNaut miles runAvg speedWind from/ knotsBaromVisibWave heightAir tempDewpointWater temp
2014-Oct-30 08:19N 34°37' E 134°57'7 9.4
2014-Oct-30 07:33N 34°36' E 135°06'1111.1
2014-Oct-30 06:33N 34°39' E 135°19'5 4.9
2014-Oct-30 05:33N 34°42' E 135°24'0 0.0
2014-Oct-29 23:12N 34°42' E 135°23'0 0.7
2014-Oct-29 22:33N 34°42' E 135°24'8 8.2
2014-Oct-29 21:33N 34°41' E 135°14'1 1.1
2014-Oct-29 20:19N 34°41' E 135°12'0 0.0
2014-Oct-29 19:31N 34°41' E 135°12'0 0.0
2014-Oct-29 18:31N 34°41' E 135°12'0 0.0
2014-Oct-29 17:31N 34°41' E 135°12'0 0.0
2014-Oct-29 16:25N 34°41' E 135°12'0 0.0
2014-Oct-29 15:31N 34°41' E 135°12'0 0.0
2014-Oct-29 14:31N 34°41' E 135°12'0 0.0
2014-Oct-29 13:31N 34°41' E 135°12'0 0.0
2014-Oct-29 12:31N 34°41' E 135°12'0 0.0
2014-Oct-29 11:31N 34°41' E 135°12'0 0.0
2014-Oct-29 10:31N 34°41' E 135°12'0 0.0
2014-Oct-29 09:31N 34°41' E 135°12'0 0.0
2014-Oct-29 08:31N 34°41' E 135°12'0 0.0
2014-Oct-29 07:25N 34°41' E 135°12'0 0.0
2014-Oct-29 06:31N 34°41' E 135°12'1 0.6
2014-Oct-29 05:33N 34°41' E 135°13'10 9.7
2014-Oct-29 04:33N 34°32' E 135°18'6 3.1
2014-Oct-29 02:31N 34°26' E 135°19'0 0.0
2014-Oct-29 01:32N 34°26' E 135°19'0 0.0
2014-Oct-28 23:32N 34°26' E 135°19'6 5.6
2014-Oct-28 22:33N 34°31' E 135°18'1010.5
2014-Oct-28 21:33N 34°41' E 135°13'1 1.0
2014-Oct-28 20:32N 34°41' E 135°12'0 0.0
2014-Oct-28 19:32N 34°41' E 135°12'0 0.0
2014-Oct-28 18:32N 34°41' E 135°12'0 0.0
2014-Oct-28 17:32N 34°41' E 135°12'0 0.0
2014-Oct-28 16:32N 34°41' E 135°12'0 0.0
2014-Oct-28 15:32N 34°41' E 135°12'0 0.0
2014-Oct-28 14:32N 34°41' E 135°12'0 0.0
2014-Oct-28 13:32N 34°41' E 135°12'0 0.0
2014-Oct-28 12:32N 34°41' E 135°12'0 0.0
2014-Oct-28 11:32N 34°41' E 135°12'0 0.0
2014-Oct-28 10:20N 34°41' E 135°12'0 0.0
2014-Oct-28 09:32N 34°41' E 135°12'0 0.0
2014-Oct-28 08:32N 34°41' E 135°12'0 0.0
2014-Oct-28 07:32N 34°41' E 135°12'1 0.7
2014-Oct-28 06:34N 34°41' E 135°13'3 3.0
2014-Oct-28 05:30N 34°42' E 135°17'0 0.0
2014-Oct-28 04:33N 34°42' E 135°17'2 2.0
2014-Oct-28 03:33N 34°41' E 135°14'5 4.7
2014-Oct-28 02:33N 34°39' E 135°10'0 0.0
2014-Oct-28 01:33N 34°39' E 135°10'0 0.0
2014-Oct-28 00:33N 34°39' E 135°10'0 0.0
2014-Oct-27 23:33N 34°39' E 135°10'1 0.7
2014-Oct-27 22:29N 34°38' E 135°10'0 0.0
2014-Oct-27 21:23N 34°38' E 135°10'0 0.4
2014-Oct-27 20:34N 34°38' E 135°10'1110.5
2014-Oct-27 19:28N 34°36' E 134°56'  
2014-Oct-24 08:27N 32°04' E 131°34'9 9.9
2014-Oct-24 07:33N 32°12' E 131°38'10 9.8
2014-Oct-24 06:33N 32°20' E 131°44'1010.1
2014-Oct-24 05:33N 32°29' E 131°50'205 9.3
2014-Oct-23 07:33N 34°37' E 135°01'8 8.0
2014-Oct-23 06:33N 34°33' E 135°09'10 9.7
2014-Oct-23 05:30N 34°27' E 135°19'1 0.2
2014-Oct-23 01:33N 34°26' E 135°19'1110.3
2014-Oct-23 00:32N 34°32' E 135°09'9 9.4
2014-Oct-22 23:32N 34°37' E 134°59'121 3.9
2014-Oct-21 16:07N 33°57' E 132°41'11810.8
2014-Oct-21 05:11N 34°36' E 134°56'5 8.2
2014-Oct-21 04:33N 34°37' E 135°02'9 8.8
2014-Oct-21 03:33N 34°37' E 135°13'1010.4
2014-Oct-21 02:33N 34°39' E 135°25'2 0.7
2014-Oct-21 00:12N 34°40' E 135°27'4 5.8
2014-Oct-20 23:33N 34°38' E 135°23'1110.6
2014-Oct-20 22:33N 34°36' E 135°10'9 8.8
2014-Oct-20 21:33N 34°37' E 134°60'  

Dump ship's entire track history